Location: Waco, TX
(31.5480°N, 97.1670°W)
Time: 03:03:16
(UTC-05:00)

ISS - Pass Details

Date: 20 September 2017
Orbit: 401 x 407 km, 51.6° (Epoch: 22 September)

Event Time Altitude Azimuth Distance (km) Brightness Sun altitude
Rises 06:31:07 0° 313° (NW) 2,327 - -10.3°
Exits shadow 06:32:25 - 312° (NW) 1,789 -0.9 -10.1°
Reaches altitude 10° 06:33:12 10° 310° (NW) 1,464 -1.4 -9.9°
Maximum altitude 06:36:28 70° 227° (SW) 434 -3.9 -9.2°
Drops below altitude 10° 06:39:43 10° 143° (SE) 1,455 -0.6 -8.5°
Sets 06:41:48 0° 141° (SE) 2,311 0.5 -8.1°
